Regional Weather Roundup
Issued by NWS Northern Indiana

Home | Current Version | Previous Version | Graphics & Text | Print | Product List | Glossary On
Versions: 1 2 3 4 5 6 7 8 9 10 11 12 13 14 15 16 17 18 19 20 21 22 23 24 25 26 27 28 29 30 31 32 33 34 35 36 37 38 39 40 41 42 43 44 45 46 47 48 49 50
000
ASUS43 KIWX 212110
RWRIWX

KIWX WEATHER ROUNDUP
NATIONAL WEATHER SERVICE NORTHERN INDIANA
500 PM EDT MON AUG 21 2017

NOTE: "FAIR" INDICATES FEW OR NO CLOUDS BELOW 12,000 FEET WITH NO
SIGNIFICANT WEATHER AND/OR OBSTRUCTIONS TO VISIBILITY.

* THESE STATIONS ARE NOT UNDER NWS QUALITY CONTROL. THEY ALSO MAY NOT
  REPORT WEATHER SUCH AS PRECIPITATION OR FOG.

INZ001>027-212200-
NORTHERN INDIANA

CITY           SKY/WX    TMP DP  RH WIND       PRES   REMARKS
GARY*          PTSUNNY   84  70  61 SE3       30.01S
VALPARAISO     CLOUDY    85  73  67 SE6       30.02S
MICHIGAN CITY* CLOUDY    82  70  65 SE3       30.02R
LAPORTE*       CLOUDY    83  71  66 S5        30.02R
KNOX*          PTSUNNY   82  72  69 SE5       30.02S
SOUTH BEND     MOSUNNY   83  71  67 VRB3      30.01F
ELKHART*       CLOUDY    86  68  54 CALM      30.01F
GOSHEN         CLOUDY    84  68  58 CALM      30.02F
MONTICELLO*    PTSUNNY   84  71  63 S8        30.01F
LOGANSPORT*    PTSUNNY   82  72  69 S8        30.05F
ROCHESTER*     CLOUDY   N/A N/A N/A S7        30.03F
WARSAW*        MOSUNNY   82  68  61 SE3       30.04F
AUBURN*        SUNNY     82  68  61 W6        30.06S
FORT WAYNE     PTSUNNY   87  70  56 SW9       30.05F
HUNTINGTON*    MOSUNNY   85  72  63 W7        30.05F
PERU/GRISSOM   PTSUNNY   85  73  68 S9        30.04F
MARION*        CLOUDY    82  73  74 S8        30.06F

$$
INZ028>050-212200-
CENTRAL INDIANA

CITY           SKY/WX    TMP DP  RH WIND       PRES   REMARKS
LAFAYETTE      MOSUNNY   84  73  69 S9        30.03F
KOKOMO*        CLOUDY    84  75  74 S8        30.06F
MUNCIE*        TSTM      80  71  74 W12G25    30.08F
INDIANAPOLIS   TSTM      76  69  79 CALM      30.09S

$$
MIZ043>046-050>051-056>058-064>065-071>073-077>080-212200-
SOUTHWEST LOWER MICHIGAN

CITY           SKY/WX    TMP DP  RH WIND       PRES   REMARKS
BATTLE CREEK   MOSUNNY   84  70  62 W7        30.03F
BENTON HARBOR  CLOUDY    83  70  64 CALM      30.00F
COLDWATER*     MOSUNNY   85  64  48 SW10      30.03F
HILLSDALE*     CLOUDY    82  66  57 SW7       30.04F
HOLLAND        MOSUNNY   80  71  74 SW9       30.01S
GRAND RAPIDS   CLOUDY    80  72  76 S7        30.00F
KALAMAZOO      MOSUNNY   85  65  51 S8        30.02F
STURGIS*       MOSUNNY   82  67  59 W6        30.03S
THREE RIVERS*  FAIR      86  66  50 SW8       30.03S

$$
OHZ001>008-015>018-024>025-212200-
NORTHWEST OHIO

CITY           SKY/WX    TMP DP  RH WIND       PRES   REMARKS
WAUSEON*       FAIR      88  70  55 SW10G20   30.04S
DEFIANCE       MOSUNNY   86  69  56 SW8       30.04F
FINDLAY        MOSUNNY   82  70  66 S9        30.07R
TOLEDO EXPRESS SUNNY     86  70  58 SW8       30.04S
TOLEDO METCALF CLOUDY    88  71  57 SW10      30.04F
LIMA           MOSUNNY   81  71  71 S9        30.09R

$$
AND FOR LAKE MICHIGAN COASTAL AND OPEN LAKE BUOY OBSERVATIONS

STATION/POSITION TEMP    WIND        PRES    VSBY  WAVE
                 AIR SEA DIR/SP/G                  HT/PER
                 (F)     (DEG/KT/KT) (MB)    (MI)  (FT/S)
CALUMET HARBOR    80     100/  5/  7 1015.0F
MICHIGAN CITY     76      30/  4/  5   N/A
BURNS HARBOR      81      80/  6/ 13 1016.6R
SAINT JOSEPH      78      10/  3/  3 1016.6
SOUTH LAKE BUOY   73 72  100/  8/  8 1014.7F         1/ 4
4 MI NW BRIDGMAN  76 75   60/  2/  4 1015.0          1
MICHIGAN CITY     76 76   70/  4/  6   N/A           1

$$
&&




USA.gov is the U.S. government's official web portal to all federal, state and local government web resources and services.